Weather History for Hazlehurst, GA

Change the Weather History Date:

Tuesday, December 11, 2012

  Actual Average Record
Temperature  
Mean Temperature 58 °F -  
Max Temperature 75 °F 58 °F 78 °F (2013)
Min Temperature 50 °F 44 °F 36 °F (2013)
Degree Days  
Heating Degree Days 7    
Growing Degree Days 8 (Base 50)    
Moisture  
Dew Point 56 °F    
Average Humidity 96    
Maximum Humidity 100    
Minimum Humidity 84    
Precipitation  
Precipitation 0.00 in - - ()
Sea Level Pressure  
Sea Level Pressure 29.97 in    
Wind  
Wind Speed 2 mph (NW)    
Max Wind Speed 9 mph    
Max Gust Speed -    
Visibility 10 miles    
Events Rain    
Averages and records for this station are not official NWS values.
T = Trace of Precipitation, MM = Missing Value Source: NWS Daily Summary

Daily Weather History Graph

Daily Weather History Graph

Search for Another Location

Airport:

Trip Planner

Search our weather history database for the weather conditions in past years. The results will help you decide how hot, cold, wet, or windy it might be!

Date:

Astronomy

Dec. 11, 2012 Rise Set
Actual Time 7:21 AM EST 5:27 PM EST
Civil Twilight 6:54 AM EST 5:54 PM EST
Nautical Twilight 6:23 AM EST 6:24 PM EST
Astronomical Twilight 5:53 AM EST 6:54 PM EST
Moon 5:17 AM EST (12/11) 4:02 PM EST (12/11)
Length of Visible Light 10h 59m
Length of Day
10h 06m
Waning Crescent, 4% of the Moon is Illuminated
Dec 11
Waning Crescent
Dec 13
New
Dec 20
First Quarter
Dec 28
Full
Jan 4
Last Quarter

Hourly Weather History & Observations

Time (EST) Temp. Dew Point Humidity Pressure Visibility Wind Dir Wind Speed Gust Speed Precip Events Conditions
12:15 AM 66.6 °F 65.3 °F 96% 29.83 in 10.0 mi WSW 3.5 mph - N/A   Mostly Cloudy
1:15 AM 65.5 °F 65.1 °F 99% 29.83 in 10.0 mi Calm Calm - N/A   Overcast
1:35 AM 65.3 °F 65.1 °F 99% 29.82 in 10.0 mi Calm Calm - N/A   Overcast
1:55 AM 65.1 °F 65.1 °F 100% 29.82 in 10.0 mi Calm Calm - N/A   Overcast
2:15 AM 64.9 °F 64.9 °F 100% 29.82 in 10.0 mi WSW 3.5 mph - N/A   Overcast
2:35 AM 65.1 °F 64.0 °F 96% 29.82 in 10.0 mi Calm Calm - N/A   Mostly Cloudy
2:55 AM 64.4 °F 63.1 °F 96% 29.81 in 10.0 mi Calm Calm - N/A   Mostly Cloudy
3:35 AM - - N/A% 29.83 in 10.0 mi Calm Calm - N/A   Clear
3:55 AM 61.3 °F 61.5 °F 100% 29.84 in 10.0 mi Calm Calm - N/A   Scattered Clouds
4:15 AM 61.7 °F 61.7 °F 100% 29.84 in 10.0 mi Calm Calm - N/A   Scattered Clouds
4:35 AM 61.0 °F 61.3 °F 100% 29.85 in 10.0 mi Calm Calm - N/A   Scattered Clouds
4:55 AM 61.2 °F 61.3 °F 100% 29.86 in 10.0 mi Calm Calm - N/A   Mostly Cloudy
5:15 AM 61.3 °F 61.5 °F 100% 29.87 in 10.0 mi Calm Calm - N/A   Mostly Cloudy
5:35 AM 60.8 °F 61.0 °F 100% 29.88 in 10.0 mi West 3.5 mph - N/A   Mostly Cloudy
5:55 AM 61.2 °F 61.3 °F 100% 29.88 in 10.0 mi Calm Calm - N/A   Overcast
6:15 AM 61.2 °F 61.3 °F 100% 29.90 in 10.0 mi Calm Calm - N/A   Overcast
6:35 AM 60.6 °F 60.6 °F 100% 29.90 in 10.0 mi Calm Calm - N/A   Overcast
6:55 AM 60.6 °F 60.8 °F 100% 29.91 in 10.0 mi Calm Calm - N/A   Overcast
7:15 AM 60.8 °F 61.0 °F 100% 29.92 in 10.0 mi Calm Calm - N/A   Overcast
7:35 AM 61.0 °F 61.2 °F 100% 29.93 in 10.0 mi NNW 6.9 mph - N/A   Overcast
7:55 AM 59.7 °F 58.8 °F 97% 29.94 in 10.0 mi NW 4.6 mph - N/A   Overcast
8:15 AM 58.3 °F 57.0 °F 96% 29.94 in 10.0 mi NW 3.5 mph - N/A   Overcast
8:55 AM 57.0 °F 56.8 °F 99% 29.96 in 4.0 mi NNW 8.1 mph - N/A   Overcast
9:15 AM 55.8 °F 55.9 °F 100% 29.98 in 3.0 mi NNW 9.2 mph - N/A   Overcast
9:35 AM 55.0 °F 55.2 °F 100% 29.99 in 2.5 mi NW 6.9 mph - N/A   Overcast
9:55 AM 54.7 °F 54.9 °F 100% 29.99 in 5.0 mi NNW 8.1 mph - N/A   Overcast
10:15 AM 55.4 °F 54.9 °F 98% 30.01 in 10.0 mi NNW 4.6 mph - N/A   Overcast
10:55 AM 56.7 °F 54.7 °F 93% 30.00 in 10.0 mi NNW 3.5 mph - N/A   Overcast
11:15 AM 57.0 °F 54.5 °F 91% 30.00 in 10.0 mi NNW 3.5 mph - N/A   Overcast
11:35 AM 57.4 °F 54.7 °F 91% 30.00 in 10.0 mi Calm Calm - N/A   Overcast
11:55 AM 57.9 °F 54.7 °F 89% 29.99 in 10.0 mi NNW 3.5 mph - N/A   Overcast
12:15 PM 58.3 °F 54.5 °F 87% 29.99 in 10.0 mi NNW 3.5 mph - N/A   Overcast
12:35 PM 58.6 °F 54.7 °F 87% 29.99 in 10.0 mi Calm Calm - N/A   Overcast
12:55 PM 58.8 °F 54.5 °F 86% 29.99 in 10.0 mi Calm Calm - N/A   Overcast
1:15 PM 59.0 °F 54.3 °F 84% 29.99 in 10.0 mi NW 4.6 mph - N/A   Overcast
1:35 PM 58.8 °F 54.5 °F 86% 29.99 in 10.0 mi NW 3.5 mph - N/A   Light Drizzle
1:55 PM 58.3 °F 54.1 °F 86% 29.99 in 10.0 mi WNW 3.5 mph - N/A   Overcast
2:15 PM 58.1 °F 54.1 °F 87% 29.99 in 10.0 mi Calm Calm - N/A Rain Rain
2:35 PM 57.6 °F 54.7 °F 90% 29.99 in 10.0 mi Calm Calm - N/A   Light Drizzle
2:55 PM 57.4 °F 54.7 °F 91% 30.00 in 10.0 mi Calm Calm - N/A Rain Rain
3:15 PM 57.4 °F 54.9 °F 91% 29.99 in 10.0 mi Calm Calm - N/A   Overcast
3:35 PM 57.7 °F 54.3 °F 88% 29.99 in 10.0 mi Calm Calm - N/A   Overcast
3:55 PM 57.7 °F 54.0 °F 87% 29.99 in 10.0 mi North 5.8 mph - N/A Rain Light Rain
4:15 PM 57.2 °F 53.8 °F 88% 30.00 in 10.0 mi Calm Calm - N/A Rain Light Rain
4:35 PM 56.5 °F 54.3 °F 92% 30.00 in 10.0 mi Calm Calm - N/A   Light Drizzle
4:55 PM 56.3 °F 54.7 °F 94% 30.00 in 10.0 mi Calm Calm - N/A Rain Rain
5:15 PM 55.9 °F 54.7 °F 96% 30.00 in 10.0 mi Calm Calm - N/A Rain Light Rain
5:35 PM 55.6 °F 55.0 °F 98% 30.00 in 10.0 mi Calm Calm - N/A Rain Light Rain
5:55 PM 55.4 °F 54.7 °F 97% 30.01 in 10.0 mi NW 3.5 mph - N/A   Mostly Cloudy
6:15 PM 55.2 °F 53.4 °F 94% 30.04 in 10.0 mi West 4.6 mph - N/A Rain Rain
6:35 PM 54.0 °F 52.3 °F 94% 30.01 in 10.0 mi NE 4.6 mph - N/A Rain Rain
6:55 PM 52.7 °F 52.3 °F 99% 30.05 in 10.0 mi NW 4.6 mph - N/A Rain Light Rain
7:15 PM 51.6 °F 51.8 °F 100% 30.03 in 10.0 mi Calm Calm - N/A   Light Drizzle
7:35 PM 51.3 °F 51.4 °F 100% 30.04 in 10.0 mi NNW 3.5 mph - N/A   Light Drizzle
8:15 PM 51.1 °F 51.3 °F 100% 30.06 in 10.0 mi NNW 3.5 mph - N/A   Overcast
8:35 PM 51.1 °F 51.3 °F 100% 30.06 in 10.0 mi Calm Calm - N/A   Overcast
8:55 PM 51.3 °F 51.4 °F 100% 30.05 in 10.0 mi Calm Calm - N/A   Mostly Cloudy
9:15 PM 51.1 °F 51.3 °F 100% 30.08 in 10.0 mi Calm Calm - N/A   Mostly Cloudy
9:35 PM 51.1 °F 51.3 °F 100% 30.08 in 10.0 mi Calm Calm - N/A   Overcast
9:55 PM 51.3 °F 51.1 °F 99% 30.07 in 10.0 mi North 4.6 mph - N/A   Overcast
10:35 PM 50.9 °F 49.6 °F 95% 30.08 in 10.0 mi Calm Calm - N/A   Overcast
10:55 PM 50.9 °F 49.5 °F 95% 30.10 in 10.0 mi Calm Calm - N/A Rain Light Rain
11:15 PM 50.9 °F 49.3 °F 94% 30.11 in 10.0 mi Calm Calm - N/A   Light Drizzle
11:35 PM 50.5 °F 49.3 °F 95% 30.12 in 10.0 mi Calm Calm - N/A Rain Rain
11:55 PM 50.2 °F 48.9 °F 95% 30.12 in 10.0 mi Calm Calm - N/A Rain Light Rain